SKYSAT-C8

Last updated on Sun Oct 26 2025 00:02:39 GMT+0000 (Coordinated Universal Time)

1 42990U 17068D 25298.31128954 .00026510 00000+0 85131-3 0 9999 2 42990 97.4266 68.1523 0005241 96.3850 263.7989 15.32260037446296
UTC large
Height (km)
Speed (km/s)
/
Latitude / Longitude
Inclination (degrees)
Orbital Period (minutes)
Azimuth
Elevation
Range (km)
Doppler Factor

Next 0 passes for location: London (51.5072 / 0.1276)

Sorry there are no passes over London.